Location: Unspecified
(0.0000°N, 0.0000°E)
Time: 12:27:59
(UTC+00:00)

ITUPSAT 1 - Pass Details

Date: 08 December 2017
Orbit: 703 x 713 km, 98.5° (Epoch: 20 January)

Event Time Altitude Azimuth Distance (km) Brightness Sun altitude
Rises 02:48:18 0° 158° (SSE) 3,105 ? -41.5°
Reaches altitude 10° 02:50:37 10° 152° (SSE) 2,182 ? -41.0°
Enters shadow 02:50:48 11° 152° (SSE) 2,112 ? -40.9°
